TimeEDT,TemperatureF,Dew PointF,Humidity,Sea Level PressureIn,VisibilityMPH,Wind Direction,Wind SpeedMPH,Gust SpeedMPH,PrecipitationIn,Events,Conditions,WindDirDegrees,DateUTC
12:53 AM,28.9,26.1,89,29.99,10.0,Calm,Calm,-,N/A,,Scattered Clouds,0,2013-03-30 04:53:00
1:53 AM,28.9,26.1,89,29.99,10.0,Calm,Calm,-,N/A,,Scattered Clouds,0,2013-03-30 05:53:00
2:53 AM,28.9,26.1,89,29.98,10.0,Calm,Calm,-,N/A,,Scattered Clouds,0,2013-03-30 06:53:00
3:53 AM,25.0,25.0,100,29.98,10.0,Calm,Calm,-,N/A,,Partly Cloudy,0,2013-03-30 07:53:00
4:53 AM,27.0,26.1,96,29.99,10.0,Calm,Calm,-,N/A,,Partly Cloudy,0,2013-03-30 08:53:00
5:53 AM,25.0,24.1,96,29.99,10.0,Calm,Calm,-,N/A,,Partly Cloudy,0,2013-03-30 09:53:00
6:53 AM,26.1,25.0,96,30.01,10.0,Calm,Calm,-,N/A,,Overcast,0,2013-03-30 10:53:00
7:53 AM,36.0,28.9,76,30.02,10.0,WNW,3.5,-,N/A,,Overcast,290,2013-03-30 11:53:00
8:53 AM,39.9,28.9,65,30.02,10.0,NW,4.6,-,N/A,,Overcast,320,2013-03-30 12:53:00
9:53 AM,43.0,27.0,53,30.02,10.0,Calm,Calm,-,N/A,,Mostly Cloudy,0,2013-03-30 13:53:00
10:53 AM,46.0,23.0,40,30.01,10.0,NW,9.2,-,N/A,,Scattered Clouds,310,2013-03-30 14:53:00
11:53 AM,48.9,19.9,32,30.00,10.0,Variable,6.9,-,N/A,,Partly Cloudy,0,2013-03-30 15:53:00
12:53 PM,48.9,19.0,31,29.99,10.0,NNW,16.1,20.7,N/A,,Partly Cloudy,340,2013-03-30 16:53:00
1:53 PM,51.1,19.9,29,29.97,10.0,NNW,12.7,21.9,N/A,,Partly Cloudy,330,2013-03-30 17:53:00
2:53 PM,51.1,17.1,26,29.96,10.0,West,10.4,-,N/A,,Scattered Clouds,280,2013-03-30 18:53:00
3:53 PM,51.1,16.0,25,29.96,10.0,Variable,5.8,-,N/A,,Scattered Clouds,0,2013-03-30 19:53:00
4:53 PM,51.1,12.9,22,29.96,10.0,North,8.1,-,N/A,,Scattered Clouds,350,2013-03-30 20:53:00
5:53 PM,48.9,15.1,26,29.98,10.0,NNW,11.5,-,N/A,,Scattered Clouds,340,2013-03-30 21:53:00
6:53 PM,44.1,14.0,30,30.00,10.0,North,6.9,-,N/A,,Partly Cloudy,350,2013-03-30 22:53:00
7:53 PM,39.0,12.9,34,30.02,10.0,NW,4.6,-,N/A,,Clear,320,2013-03-30 23:53:00
8:53 PM,37.9,12.0,35,30.04,10.0,NW,3.5,-,N/A,,Clear,310,2013-03-31 00:53:00
9:53 PM,37.0,10.9,34,30.05,10.0,West,4.6,-,N/A,,Clear,280,2013-03-31 01:53:00
10:53 PM,35.1,12.0,39,30.06,10.0,West,3.5,-,N/A,,Clear,280,2013-03-31 02:53:00
11:53 PM,30.0,15.1,54,30.07,10.0,Calm,Calm,-,N/A,,Clear,0,2013-03-31 03:53:00